SAUDISAT 1C (SO-50) (27607 NORAD) Tracking and Keplerian Element Data

This shows tracking and keplerian element data for the satellite.

Feedback or suggestion? Click here.




ElementValue
Catalog27607
NameSAUDISAT 1C (SO-50)
Epoch Orbit11266
Epoch Day238.83294381
Epoch Year2023
RAAN48.3098
Inclination64.5544
Eccentricity0.0061844
Argument of Perigee209.8725
Mean Anonmoly149.8844
Mean Motion14.77522428
Decay Rate1.76E-05
L11 27607U 02058C 23238.83294381 .00001760 00000+0 25823-3 0 9999
L22 27607 64.5544 48.3098 0061844 209.8725 149.8844 14.77522428112666



Live tracking and technical data element details for SAUDISAT 1C (SO-50) (NORAD 27607). SAUDISAT 1C (SO-50) can be tracked NOW for your location showing map with azimuth and elevation plus other details from your city location.







IsCatalogInMostPopularTable: catalog: 27607, numindb: 914
Update: records affected: 1



GetName: 27607 SAUDISAT 1C (SO-50)

Hit Count: updated at: Mon, 04 Dec 2023 09:16:52 GMT